Regional Weather Roundup
Issued by NWS Kansas City/Pleasant Hill, MO

Home | Current Version | Previous Version | Graphics & Text | Print | Product List | Glossary Off
Versions: 1 2 3 4 5 6 7 8 9 10 11 12 13 14 15 16 17 18 19 20 21 22 23 24 25 26 27 28 29 30 31 32 33 34 35 36 37 38 39 40 41 42 43 44 45 46 47 48 49 50

000
ASUS43 KEAX 281810
RWREAX

WEATHER ROUNDUP FOR EASTERN KANSAS AND NORTHWEST MISSOURI
NATIONAL WEATHER SERVICE KANSAS CITY/PLEASANT HILL MO
100 PM CDT MON JUL 28 2014

KSZ040-057-103>105-MOZ028-029-037-043-281900-
...KANSAS CITY METROPOLITAN AREA...

CITY           SKY/WX    TMP DP  RH WIND       PRES   REMARKS
K.C. INTL      PTSUNNY   77  61  57 NW9       30.23F
6HR MIN TEMP:  60; 6HR MAX TEMP:  77;

K.C. DOWNTOWN  PTSUNNY   77  61  57 NW8       30.22S
6HR MIN TEMP:  64; 6HR MAX TEMP:  78;

LEES SUMMIT    PTSUNNY   76  59  55 N9        30.23S
6HR MIN TEMP:  62; 6HR MAX TEMP:  78;

OLATHE - IXD   MOSUNNY   77  58  51 N5        30.24S
6HR MIN TEMP:  61; 6HR MAX TEMP:  78;

OLATHE - OJC   MOSUNNY   78  58  49 N7        30.23S
6HR MIN TEMP:  63; 6HR MAX TEMP:  78;

LAWRENCE       MOSUNNY   80  60  50 N9        30.24S

$$

MOZ001>008-011>017-020>025-030>033-038>040-044>046-053-054-281900-
...NORTHERN AND CENTRAL MISSOURI...

CITY           SKY/WX    TMP DP  RH WIND       PRES   REMARKS
ST. JOSEPH     PTSUNNY   75  63  66 N10       30.24F
6HR MIN TEMP:  59; 6HR MAX TEMP:  75;

MOSBY          MOCLDY    73  59  60 NW9       30.22S
WHITEMAN AFB   PTSUNNY   78  49  36 N10       30.19F
6HR MIN TEMP:  62; 6HR MAX TEMP:  78;

CLINTON        MOSUNNY   79  63  57 NW9       30.21S
SEDALIA        PTSUNNY   78  62  57 NW12      30.20S
6HR MIN TEMP:  62; 6HR MAX TEMP:  78;

WARSAW         NOT AVBL
MARSHALL       PTSUNNY   77  64  65 N8        30.20F
CHILLICOTHE      N/A     77  59  53 N9        30.21F
6HR MIN TEMP:  63; 6HR MAX TEMP:  77;

MOBERLY        MOSUNNY   77  59  53 N9G16     30.19
KIRKSVILLE     MOSUNNY   74  55  51 N13       30.20F
6HR MIN TEMP:  61; 6HR MAX TEMP:  75;


$$

MOZ041-047>049-056>058-063>065-088>090-097-281900-
...EASTERN AND SOUTHERN MISSOURI...

CITY           SKY/WX    TMP DP  RH WIND       PRES   REMARKS
ST. LOUIS INTL PTSUNNY   77  59  53 N14       30.12S
6HR MIN TEMP:  68; 6HR MAX TEMP:  80;

SPIRIT OF STL  PTSUNNY   77  58  51 N9        30.11S
COLUMBIA       MOSUNNY   80  58  46 N10G22    30.17S
JEFFERSON CITY PTSUNNY   77  60  55 NW10      30.15F
HANNIBAL       PTSUNNY   73  57  56 N9        30.16F
ROLLA          PTSUNNY   77  57  50 NW14      30.14F
LEBANON        SUNNY     81  59  47 N10       30.18S
OSAGE BEACH    PTSUNNY   77  57  50 NW6       30.17F
SPRINGFIELD    SUNNY     80  56  43 NW10      30.19F
BRANSON        MOSUNNY   82  57  42 W8        30.19F
NEVADA         MOSUNNY   79  61  53 NW5       30.22F
JOPLIN         SUNNY     82  57  42 N13G20    30.21F
WEST PLAINS    MOSUNNY   81  60  48 NW12      30.16F
MALDEN         MOSUNNY   81  63  54 NW9       30.08F

$$

IAZ060-094-KSZ022-034>040-054-083-096-NEZ052-066-093-281900-
...KANSAS...SOUTHEAST NEBRASKA AND IOWA...

CITY           SKY/WX    TMP DP  RH WIND       PRES   REMARKS
TOPEKA         MOSUNNY   81  58  45 NW10      30.25F
6HR MIN TEMP:  63; 6HR MAX TEMP:  81;

MANHATTAN      SUNNY     81  56  42 VRB6      30.26F
EMPORIA        SUNNY     80  56  43 NW12      30.26F
CHANUTE        SUNNY     80  59  48 NW13G20   30.24F
WICHITA        MOSUNNY   82  60  47 N9        30.27F
OMAHA          PTSUNNY   73  56  54 N9        30.26F
LINCOLN        MOSUNNY   79  53  40 N15G21    30.29F
FALLS CITY     CLOUDY    73  59  61 NW7       30.25S
LAMONI         PTSUNNY   74  55  51 NE5       30.23S
DES MOINES     PTSUNNY   74  54  49 N9        30.21F

$$




USA.gov is the U.S. government's official web portal to all federal, state and local government web resources and services.